Flag for France Weather past 2 weeks in Paris, France

Now
54 °F

Clear.


Feels Like: 53 °F
Forecast: 52 / 62 °F
Wind: 5 mph from North

Location: Villacoublay


UV Index: 0 (Low)

Visibility: N/A


Pressure: 30.09 "Hg

Humidity: 82%

Dew point: 48 °F

Location of ParisLocation

Historic Weather in Paris

°F

Paris temperature yesterday

Maximum temperature yesterday: 66 °F (at 2:30 PM)
Minimum temperature yesterday: 46 °F (at 6:00 AM)
Average temperature yesterday: 56 °F

Past Weeks' High & Low Weather Summary

 TemperatureHumidityPressure
High68 °F (Apr 10, 4:30 PM)100% (Apr 23, 4:30 AM)30.36 "Hg (Apr 23, 4:30 AM)
Low39 °F (Apr 9, 6:30 AM)23% (Apr 17, 6:00 PM)29.59 "Hg (Apr 20, 3:30 PM)
Average53 °F61%30.06 "Hg
* Reported Apr 9 6:00 AM — Apr 24 2:00 AM, Paris, Weather by CustomWeather, © 2014

Note: Actual official high and low records may vary slightly from our data, if they occured in-between our weather recording intervals... More about our weather records

Advertising

Historic Weather Conditions — Data for Previous 24 hours

 ConditionsComfort  
Time TempWeatherWind HumidityBarometerVisibility
2:00 AM
Apr 24
54 °FClear.6 mph82%30.12 "HgN/A
1:30 AM54 °FLight rain. Clear.2 mph82%30.12 "HgN/A
1:00 AM54 °FClear.2 mph82%30.12 "HgN/A
12:30 AM54 °FClear.6 mph77%30.12 "HgN/A
12:00 AM55 °FClear.5 mph77%30.12 "HgN/A
11:30 PM
Apr 23
55 °FClear.6 mph77%30.09 "HgN/A
11:00 PM55 °FLight rain. Clear.6 mph77%30.09 "HgN/A
10:30 PM55 °FClear.7 mph77%30.12 "HgN/A
10:00 PM55 °FClear.7 mph77%30.09 "HgN/A
9:30 PM57 °FClear.8 mph72%30.09 "HgN/A
9:00 PM59 °FLight rain. Partly sunny.6 mph68%30.09 "HgN/A
8:30 PM61 °FOvercast.1 mph52%30.09 "HgN/A
8:00 PM61 °FClear.5 mph55%30.07 "HgN/A
7:30 PM63 °FClear.6 mph52%30.07 "HgN/A
7:00 PM63 °FClear.7 mph52%30.07 "HgN/A
6:30 PM63 °FClear.5 mph52%30.07 "HgN/A
6:00 PM64 °FClear.7 mph49%30.07 "HgN/A
5:30 PM64 °FBroken clouds.8 mph49%30.07 "HgN/A
5:00 PM64 °FClear.7 mph49%30.07 "HgN/A
4:30 PM64 °FBroken clouds.7 mph49%30.07 "HgN/A
4:00 PM64 °FPartly sunny.7 mph49%30.07 "HgN/A
3:30 PM66 °FBroken clouds.2 mph49%30.07 "HgN/A
3:00 PM64 °FBroken clouds.7 mph46%30.07 "HgN/A
2:30 PM66 °FPartly sunny.6 mph49%30.07 "HgN/A
2:00 PM64 °FScattered clouds.7 mph52%30.07 "HgN/A
1:30 PM63 °FScattered clouds.6 mph56%30.09 "HgN/A
1:00 PM64 °FScattered clouds.7 mph56%30.09 "HgN/A
12:30 PM63 °FScattered clouds.5 mph59%30.09 "HgN/A
12:00 PM61 °FPassing clouds.6 mph63%30.09 "HgN/A
11:30 AM61 °FClear.6 mph59%30.09 "HgN/A
11:00 AM59 °FClear.6 mph72%30.09 "HgN/A
10:30 AM57 °FClear.6 mph77%30.09 "HgN/A
10:00 AM55 °FClear.5 mph82%30.07 "HgN/A
9:30 AM54 °FPassing clouds.3 mph88%30.07 "HgN/A
9:00 AM52 °FPassing clouds.2 mph94%30.07 "Hg4 mi
8:30 AM50 °FFog.2 mph100%30.07 "Hg3 mi
8:00 AM50 °FFog.1 mph94%30.07 "Hg2 mi
7:30 AM48 °FLight fog.2 mph94%30.07 "Hg1 mi
7:00 AM46 °FLight fog.1 mph93%30.04 "Hg3 mi
6:30 AM46 °FFog.No wind93%30.04 "Hg0 mi
6:00 AM46 °FFog.No wind93%30.04 "Hg0 mi
5:30 AM48 °FFog.No wind94%30.04 "Hg0 mi
5:00 AM48 °FFog.No wind94%30.04 "Hg0 mi
4:30 AM48 °FLight fog.No wind100%30.04 "Hg2 mi
4:00 AM48 °FClear.2 mph94%30.04 "Hg4 mi
3:30 AM50 °FClear.2 mph94%30.04 "Hg4 mi
3:00 AM50 °FClear.3 mph94%30.04 "Hg6 mi
Weather by CustomWeather, © 2014

See weather overview